[[{"header":{"parameterUnit":"m.s-1","parameterCategory":1,"la1":30.2991,"la2":30.254,"lo1":-89.0895,"lo2":-89.0444,"dy":0.0017,"dx":0.0017,"nx":28,"ny":28,"refTime":"2023-11-21T03:00:00:Z","depth":0,"parameterNumber":2,"parameterNumberName":"U-component_of_WINDS"},"data":[0,0,0,0,0,0,0,0,0,0,0,0,0,0,0,0,0,0,0,0,0,0,0,0,0,0,0,0,0,0,0,0,0,0,0,0,0,0,0,0,0,0,0,0,0,0,0,0,0,0,0,0,0,0,0,0,0,0,3.1645,3.1645,0,3.1635,3.1635,3.1635,3.1581,3.158,3.1579,3.1578,3.1567,3.1568,3.1569,0,0,0,0,0,0,0,0,0,0,0,0,0,3.1619,3.1619,3.1645,3.1645,3.1645,3.1635,3.1635,3.1635,3.1582,3.158,3.1579,3.1577,3.1567,3.1568,3.1569,0,0,0,0,0,0,0,0,0,0,0,0,0,3.1622,3.162,3.1645,3.1617,3.1615,3.1635,3.1635,3.1635,3.1582,3.158,3.1578,3.1576,3.1566,3.1568,3.1569,3.1616,0,0,3.1573,3.1574,0,0,0,0,0,0,0,0,3.1622,3.1623,3.1621,3.1619,3.1616,3.1608,3.1622,3.1629,3.1582,3.1594,3.1578,3.1575,3.1582,3.1582,3.1584,3.1615,3.1615,3.1573,3.1574,3.1575,3.1575,0,0,0,0,0,0,0,3.1621,3.1623,3.1641,3.1622,3.1618,3.1605,3.1604,3.1623,3.1599,3.1593,3.1589,3.1589,3.158,3.1583,3.1584,3.1615,3.1573,3.1574,3.1575,3.1576,3.1685,3.1687,0,0,0,0,0,0,3.1625,3.1623,3.1642,3.1641,3.1614,3.1607,3.1605,3.1612,3.1599,3.1595,3.1591,3.1586,3.1582,3.1582,3.1583,3.1638,3.1575,3.1576,3.1577,3.1683,3.1686,3.1688,0,0,0,0,0,0,3.1625,3.1627,3.1642,3.1631,3.1632,3.161,3.1618,3.1613,3.1616,3.1597,3.1592,3.1598,3.158,3.1581,3.1608,3.1637,3.1577,3.1578,3.1681,3.1684,3.1687,3.1747,0,0,0,0,0,0,3.1624,3.1628,3.1645,3.1632,3.1633,3.1667,3.162,3.1614,3.1619,3.1613,3.1602,3.1599,3.1579,3.1607,3.161,3.1637,3.1579,3.1678,3.1682,3.1686,3.1742,3.1752,3.176,0,0,0,0,0,3.1623,3.1662,3.1646,3.1648,3.1654,3.1669,3.167,3.1646,3.1621,3.1638,3.1626,3.1599,3.1633,3.161,3.1613,3.1641,3.1676,3.1681,3.1685,3.1738,3.175,3.176,0,0,0,0,0,0,3.1678,3.1659,3.1642,3.1677,3.1675,3.166,3.1681,3.1659,3.1664,3.1659,3.1629,3.1627,3.1659,3.1653,3.1627,3.1687,3.165,3.1656,3.1689,3.17,3.1709,3.1709,3.158,0,0,0,0,0,3.1694,3.1708,3.1691,3.1724,3.1724,3.1703,3.1709,3.1691,3.1688,3.1687,3.1676,3.1675,3.1685,3.1692,3.1701,3.1742,3.1739,3.1763,3.1772,3.1779,3.1784,3.1806,3.1817,3.1703,3.1703,3.1703,0,0,3.1727,3.1719,3.1729,3.1734,3.1731,3.1747,3.1703,3.172,3.1732,3.1689,3.1715,3.1707,3.1703,3.1738,3.1753,3.1734,3.1815,3.1785,3.1791,3.1792,3.1812,3.1823,3.1832,3.1706,3.1706,3.1705,0,0,3.1795,3.179,3.1818,3.1816,3.1811,3.1798,3.1804,3.1793,3.1787,3.1812,3.1781,3.1794,3.1813,3.1811,3.1813,3.1884,3.1859,3.1887,3.1933,3.1955,3.1964,3.1972,3.1997,3.2007,3.1893,3.1893,3.1893,0,3.1837,3.1859,3.1834,3.1855,3.1858,3.1822,3.185,3.1849,3.1847,3.1851,3.183,3.1853,3.1848,3.1882,3.19,3.1902,3.1909,3.1888,3.1965,3.1972,3.1979,3.2003,3.2013,3.1896,3.1896,3.1895,3.1895,0,3.1911,3.1927,3.1949,3.195,3.1956,3.198,3.196,3.1969,3.1952,3.194,3.1967,3.196,3.1967,3.1974,3.1956,3.2006,3.1995,3.197,3.1932,3.1994,3.2016,3.2025,3.1901,3.19,3.1899,3.1898,0,0,3.2011,3.2,3.2008,3.2009,3.2003,3.2014,3.2038,3.2045,3.2054,3.2055,3.2074,3.2091,3.2068,3.2071,3.2053,3.2073,3.213,3.2045,3.2045,3.2061,3.2185,3.2204,3.2215,3.2114,3.2116,3.2117,3.2186,0,3.2077,3.2115,3.2095,3.2136,3.2152,3.2118,3.2138,3.2137,3.2128,3.2139,3.2129,3.2142,3.2111,3.2112,3.213,3.2119,3.2154,3.2114,3.2131,3.2132,3.2133,3.2226,3.2246,3.2311,3.2194,3.2196,3.2197,0,3.2158,3.2164,3.2207,3.22,3.2205,3.2224,3.223,3.2241,3.224,3.2231,3.2235,3.2213,3.2236,3.22,3.2231,3.2204,3.221,3.2206,3.2208,3.2208,3.2168,3.2229,3.2331,3.2341,3.221,3.2209,3.2208,0,3.2228,3.2246,3.2275,3.2276,3.2268,3.2282,3.2279,3.2276,3.2282,3.2288,3.2291,3.2299,3.2304,3.231,3.2292,3.2267,3.2325,3.2287,3.2319,3.232,3.2333,3.2332,3.2437,3.2337,3.2337,3.2337,3.2337,0,3.2303,3.2331,3.2306,3.2324,3.2354,3.2331,3.2362,3.2356,3.2353,3.2369,3.2341,3.2357,3.2331,3.2344,3.233,3.2358,3.236,3.2355,3.235,3.2357,3.2358,3.236,3.2355,3.2339,3.2339,3.2338,3.2338,0,3.2385,3.237,3.2399,3.239,3.2388,3.2411,3.2403,3.2419,3.2409,3.243,3.2433,3.2416,3.2431,3.2413,3.2425,3.2416,3.2455,3.2444,3.2455,3.2452,3.2485,3.2483,3.2595,3.2609,3.2501,3.2502,3.2503,0,3.2434,3.2455,3.2449,3.2458,3.2457,3.2472,3.2479,3.2457,3.2465,3.2466,3.2483,3.2495,3.2503,3.2528,3.2517,3.2527,3.2516,3.2555,3.2517,3.2523,3.2517,3.2516,3.2518,3.2562,3.2563,3.2565,3.2565,0,3.2523,3.2515,3.2526,3.2535,3.2544,3.255,3.2554,3.2563,3.254,3.2551,3.2566,3.2573,3.2587,3.2599,3.2606,3.2603,3.2581,3.2578,3.2586,3.2592,3.2598,3.2596,3.2476,3.2575,3.2574,3.2573,3.2573,3.2572,3.259,3.2608,3.2607,3.262,3.2621,3.2626,3.2641,3.2633,3.2645,3.2655,3.2642,3.266,3.266,3.2667,3.2667,3.2681,3.2665,3.2676,3.2679,3.2682,3.2687,3.2597,3.2683,3.2682,3.2682,3.2682,3.2682,0,3.2678,3.2676,3.2689,3.2696,3.2707,3.2686,3.2689,3.27,3.2717,3.2718,3.2728,3.2746,3.2758,3.2749,3.276,3.2773,3.2763,3.2777,3.2775,3.2775,3.2701,3.2694,3.2785,3.2785,3.2785,3.2785,3.2785,3.2785,3.2725,3.2754,3.2746,3.2776,3.2773,3.2792,3.2796,3.28,3.2801,3.2823,3.2833,3.2828,3.2825,3.2836,3.2846,3.2843,3.2849,3.2866,3.2859,3.279,3.278,3.2771,3.2763,3.2867,3.2867,3.2932,3.2932,3.2933]},{"header":{"parameterUnit":"m.s-1","parameterCategory":1,"la1":30.2991,"la2":30.254,"lo1":-89.0895,"lo2":-89.0444,"dy":0.0017,"dx":0.0017,"nx":28,"ny":28,"refTime":"2023-11-21T03:00:00:Z","depth":0,"parameterNumber":3,"parameterNumberName":"V-component_of_WINDS"},"data":[0,0,0,0,0,0,0,0,0,0,0,0,0,0,0,0,0,0,0,0,0,0,0,0,0,0,0,0,0,0,0,0,0,0,0,0,0,0,0,0,0,0,0,0,0,0,0,0,0,0,0,0,0,0,0,0,0,0,-5.9183,-5.9184,0,-5.9274,-5.9275,-5.9276,-5.9233,-5.9231,-5.9228,-5.9226,-5.9315,-5.932,-5.9324,0,0,0,0,0,0,0,0,0,0,0,0,0,-5.8969,-5.8973,-5.9183,-5.9184,-5.9185,-5.9274,-5.9275,-5.9277,-5.9233,-5.9231,-5.9228,-5.9225,-5.9314,-5.9319,-5.9325,0,0,0,0,0,0,0,0,0,0,0,0,0,-5.9061,-5.8974,-5.9183,-5.9175,-5.9175,-5.9274,-5.9275,-5.9277,-5.9234,-5.923,-5.9227,-5.9224,-5.9312,-5.9319,-5.9325,-5.9437,0,0,-5.9346,-5.9349,0,0,0,0,0,0,0,0,-5.9056,-5.9069,-5.9175,-5.9175,-5.9176,-5.9239,-5.9232,-5.933,-5.9235,-5.9211,-5.9226,-5.9222,-5.9292,-5.9301,-5.9325,-5.9441,-5.9445,-5.9347,-5.9351,-5.9354,-5.9356,0,0,0,0,0,0,0,-5.905,-5.9065,-5.9219,-5.9176,-5.9177,-5.9165,-5.9175,-5.9251,-5.927,-5.9213,-5.921,-5.9222,-5.9292,-5.9319,-5.9327,-5.9446,-5.9347,-5.9353,-5.9357,-5.9359,-5.9658,-5.9662,0,0,0,0,0,0,-5.9044,-5.906,-5.9216,-5.9222,-5.9106,-5.9172,-5.9182,-5.9222,-5.9269,-5.9273,-5.9225,-5.9219,-5.9309,-5.9319,-5.933,-5.9464,-5.9354,-5.936,-5.9364,-5.9654,-5.9659,-5.9663,0,0,0,0,0,0,-5.9039,-5.9058,-5.9212,-5.914,-5.9159,-5.9179,-5.9224,-5.9226,-5.9252,-5.9278,-5.9281,-5.9249,-5.9307,-5.932,-5.9411,-5.9466,-5.9363,-5.9369,-5.965,-5.9656,-5.9661,-5.9733,0,0,0,0,0,0,-5.9033,-5.9057,-5.91,-5.9141,-5.9163,-5.9293,-5.9228,-5.923,-5.9265,-5.9259,-5.9301,-5.9305,-5.9305,-5.9401,-5.9418,-5.9474,-5.9375,-5.9645,-5.9652,-5.9659,-5.9725,-5.974,-5.9753,0,0,0,0,0,-5.9026,-5.9115,-5.9102,-5.9122,-5.9217,-5.9296,-5.9309,-5.9308,-5.9269,-5.9312,-5.9329,-5.9304,-5.9458,-5.9411,-5.9429,-5.9488,-5.9641,-5.965,-5.9659,-5.9719,-5.9737,-5.9752,0,0,0,0,0,0,-5.9078,-5.9121,-5.9107,-5.9212,-5.9251,-5.9289,-5.9343,-5.9327,-5.9376,-5.9369,-5.9364,-5.9374,-5.9468,-5.9487,-5.9434,-5.9599,-5.9543,-5.9556,-5.9583,-5.96,-5.9614,-5.9607,-5.938,0,0,0,0,0,-5.9102,-5.9164,-5.9197,-5.9287,-5.9308,-5.9323,-5.9357,-5.9353,-5.9393,-5.9408,-5.9432,-5.947,-5.9527,-5.9565,-5.9618,-5.9728,-5.9736,-5.9777,-5.9791,-5.9802,-5.9813,-5.9873,-5.9892,-5.9692,-5.9692,-5.9691,0,0,-5.9152,-5.9183,-5.9222,-5.9299,-5.9328,-5.9392,-5.9336,-5.9405,-5.9452,-5.9418,-5.9506,-5.9525,-5.9567,-5.9668,-5.9713,-5.9686,-5.9871,-5.9813,-5.9822,-5.9827,-5.9884,-5.9903,-5.992,-5.9698,-5.9696,-5.9696,0,0,-5.9276,-5.9305,-5.9384,-5.9416,-5.9462,-5.9471,-5.949,-5.9531,-5.9543,-5.9631,-5.9607,-5.9662,-5.976,-5.9792,-5.9821,-5.9958,-5.9936,-5.9975,-6.0047,-6.0105,-6.0121,-6.0135,-6.0185,-6.0202,-5.9986,-5.9987,-5.9987,0,-5.9332,-5.9427,-5.9426,-5.9498,-5.9533,-5.9507,-5.9586,-5.9616,-5.9677,-5.9701,-5.9671,-5.9795,-5.9821,-5.9929,-5.9963,-5.9987,-6.0008,-5.9971,-6.0119,-6.0133,-6.0146,-6.0193,-6.0212,-5.9991,-5.9991,-5.999,-5.999,0,-5.9494,-5.9561,-5.9619,-5.9681,-5.9721,-5.9797,-5.9806,-5.9848,-5.9841,-5.9853,-5.9943,-5.9975,-6.0035,-6.006,-6.0053,-6.0168,-6.015,-6.0119,-6.0064,-6.017,-6.0214,-6.0232,-5.9997,-5.9996,-5.9995,-5.9993,0,0,-5.9652,-5.9714,-5.9735,-5.9764,-5.9814,-5.9865,-5.9938,-5.9999,-6.0035,-6.0078,-6.014,-6.0224,-6.0197,-6.023,-6.0226,-6.0277,-6.0385,-6.0241,-6.0241,-6.0267,-6.0514,-6.0537,-6.0558,-6.0371,-6.0374,-6.0377,-6.051,0,-5.978,-5.9912,-5.9913,-6.0034,-6.0095,-6.0072,-6.0137,-6.0174,-6.0188,-6.0241,-6.0255,-6.0316,-6.0275,-6.0295,-6.0344,-6.0361,-6.0434,-6.0352,-6.0428,-6.0431,-6.0419,-6.0581,-6.0605,-6.073,-6.0528,-6.0531,-6.0533,0,-5.9947,-5.9997,-6.0124,-6.0167,-6.0193,-6.0251,-6.0307,-6.0359,-6.04,-6.0407,-6.0444,-6.0433,-6.0508,-6.045,-6.0553,-6.0497,-6.0528,-6.0541,-6.0546,-6.0553,-6.0488,-6.0593,-6.0769,-6.0788,-6.056,-6.0558,-6.0556,0,-6.005,-6.015,-6.024,-6.0264,-6.0315,-6.0357,-6.038,-6.0418,-6.0455,-6.0504,-6.0527,-6.0583,-6.0614,-6.0657,-6.0662,-6.0619,-6.0765,-6.0708,-6.0772,-6.0772,-6.0804,-6.0802,-6.0988,-6.0824,-6.0823,-6.0823,-6.0823,0,-6.0193,-6.0272,-6.0287,-6.0342,-6.043,-6.0431,-6.0517,-6.0536,-6.0571,-6.0628,-6.0611,-6.0665,-6.0667,-6.0722,-6.0726,-6.0811,-6.0824,-6.0831,-6.0831,-6.0833,-6.0833,-6.0854,-6.0845,-6.0828,-6.0827,-6.0826,-6.0825,0,-6.0324,-6.0337,-6.0433,-6.0475,-6.0487,-6.055,-6.0584,-6.0636,-6.0649,-6.0722,-6.0739,-6.0759,-6.0823,-6.0831,-6.0906,-6.0908,-6.1011,-6.1001,-6.0997,-6.0996,-6.1061,-6.1055,-6.1267,-6.1295,-6.1112,-6.1114,-6.1115,0,-6.0414,-6.0475,-6.0523,-6.0562,-6.0588,-6.0649,-6.0687,-6.069,-6.073,-6.0783,-6.0829,-6.0892,-6.0942,-6.1046,-6.1066,-6.1123,-6.1115,-6.1186,-6.1123,-6.1124,-6.1117,-6.1113,-6.112,-6.1198,-6.12,-6.1201,-6.1203,0,-6.0574,-6.0578,-6.0634,-6.0694,-6.074,-6.0786,-6.0829,-6.0861,-6.087,-6.0916,-6.0982,-6.1022,-6.1099,-6.1162,-6.1218,-6.124,-6.1223,-6.1222,-6.124,-6.1243,-6.1239,-6.1243,-6.1031,-6.1217,-6.1216,-6.1215,-6.1214,-6.1213,-6.0688,-6.0741,-6.0784,-6.0847,-6.0881,-6.0922,-6.0974,-6.0993,-6.105,-6.1114,-6.1112,-6.1185,-6.1225,-6.13,-6.1327,-6.1383,-6.136,-6.1386,-6.1393,-6.1399,-6.1406,-6.123,-6.1394,-6.1393,-6.1393,-6.1392,-6.1392,0,-6.0847,-6.0874,-6.0932,-6.0995,-6.1045,-6.1026,-6.1073,-6.1116,-6.1181,-6.1221,-6.1272,-6.1349,-6.141,-6.1435,-6.1494,-6.1535,-6.1529,-6.1551,-6.1548,-6.1553,-6.1423,-6.1402,-6.1555,-6.1555,-6.1555,-6.1555,-6.1555,-6.1555,-6.0936,-6.1025,-6.1034,-6.114,-6.1166,-6.1239,-6.1268,-6.1306,-6.1338,-6.1425,-6.1476,-6.1493,-6.1527,-6.1589,-6.1644,-6.165,-6.1673,-6.1698,-6.1701,-6.1579,-6.1562,-6.1547,-6.1527,-6.1703,-6.1703,-6.1826,-6.1827,-6.1828]}]]